User: anonymous
Location: Unspecified
(0.0000°N, 0.0000°E)
Time: 14:51:24
(UTC+02:00)
Language:

NATO 3D Rocket - Orbit

View from above orbital plane
View from above orbital plane
View from above satellite
View from above satellite

Ground track
Ground track

The orbit data is extracted from the following two-line orbital elements,

1 15392U 84115B   14236.47162751  .00000294  00000-0  11795-3 0  1878
2 15392 021.4973 327.0271 1035138 265.4065 186.4350 12.45425722355788
Epoch (UTC): 24 August 2014 11:19:08
Eccentricity: 0.1035138
inclination: 21.4973°
perigee height: 670 km
apogee height: 2297 km
right ascension of ascending node: 327.0271°
argument of perigee: 265.4065°
revolutions per day: 12.45425722
mean anomaly at epoch: 186.4350°
orbit number at epoch: 35578

The dashed part of the orbit path shows where the satellite is in the earth's shadow,  

DLR